^^
 
Daily Summary for May 28, 2022 Units:  English    Metric   Both
Daily Weekly Monthly Yearly Custom
  Current: High: Low: Average:
Temperature: 58.2 °F 59.5 °F 52.7 °F 54.9 °F
Dew Point: 48.8 °F 50.7 °F 48.0 °F 48.9 °F
Humidity: 71% 86% 69% 80%
Wind Speed: 6mph 16mph 0mph 4.7mph
Wind Gust: 6mph 16mph - -
WindNNW - - South
Pressure: 30.0 in 30.0 in 30.0 in -
Precipitation: 0.000 in      
Historical Graphs
 
 
Tabular Data for May 28, 2022
Time Temperature Dew Point Pressure Wind Wind Speed Wind Gust Humidity Rainfall Rate (Hourly) solar
00:04 59.5 °F 49.7 °F 30.0 in NW 6 mph 4 mph 70% 0.000 in 0.00 W/m2
00:09 59.3 °F 49.5 °F 30.0 in NNW 2 mph 6 mph 70% 0.000 in 0.00 W/m2
00:14 59.2 °F 49.0 °F 30.0 in NNW 4 mph 2 mph 69% 0.000 in 0.00 W/m2
00:19 59.1 °F 49.0 °F 30.0 in NNW 2 mph 3 mph 69% 0.000 in 0.00 W/m2
00:24 59.0 °F 49.5 °F 30.0 in NNW 2 mph 2 mph 71% 0.000 in 0.00 W/m2
00:29 58.9 °F 49.5 °F 30.0 in NNW 2 mph 2 mph 71% 0.000 in 0.00 W/m2
00:34 58.9 °F 49.5 °F 30.0 in North 4 mph 2 mph 71% 0.000 in 0.00 W/m2
00:39 58.7 °F 49.3 °F 30.0 in North 5 mph 3 mph 71% 0.000 in 0.00 W/m2
00:43 58.6 °F 49.2 °F 30.0 in North 6 mph 6 mph 71% 0.000 in 0.00 W/m2
00:49 58.5 °F 49.1 °F 30.0 in North 6 mph 6 mph 71% 0.000 in 0.00 W/m2
00:54 58.4 °F 49.3 °F 30.0 in Calm   3 mph 72% 0.000 in 0.00 W/m2
00:59 58.2 °F 49.2 °F 30.0 in ENE 4 mph   72% 0.000 in 0.00 W/m2
01:04 58.1 °F 49.5 °F 30.0 in East 2 mph 3 mph 73% 0.000 in 0.00 W/m2
01:09 58.0 °F 49.0 °F 30.0 in Calm   2 mph 72% 0.000 in 0.00 W/m2
01:14 58.0 °F 49.4 °F 30.0 in Calm     73% 0.000 in 0.00 W/m2
01:19 58.0 °F 49.8 °F 30.0 in Calm     74% 0.000 in 0.00 W/m2
01:24 57.9 °F 50.3 °F 30.0 in Calm     76% 0.000 in 0.00 W/m2
01:29 57.9 °F 50.7 °F 30.0 in Calm     77% 0.000 in 0.00 W/m2
01:34 57.8 °F 50.5 °F 30.0 in East 2 mph   77% 0.000 in 0.00 W/m2
01:39 57.7 °F 50.2 °F 30.0 in East 6 mph 2 mph 76% 0.000 in 0.00 W/m2
01:44 57.4 °F 49.8 °F 30.0 in East 4 mph 6 mph 76% 0.000 in 0.00 W/m2
01:49 57.2 °F 49.6 °F 30.0 in ENE 4 mph 3 mph 76% 0.000 in 0.00 W/m2
01:54 56.9 °F 49.7 °F 30.0 in East 6 mph 3 mph 77% 0.000 in 0.00 W/m2
01:59 56.7 °F 49.8 °F 30.0 in East 2 mph 6 mph 78% 0.000 in 0.00 W/m2
02:04 56.5 °F 49.7 °F 30.0 in Calm   2 mph 78% 0.000 in 0.00 W/m2
02:09 56.3 °F 50.1 °F 30.0 in Calm     80% 0.000 in 0.00 W/m2
02:14 56.2 °F 49.7 °F 30.0 in Calm     79% 0.000 in 0.00 W/m2
02:19 56.0 °F 49.8 °F 30.0 in Calm     80% 0.000 in 0.00 W/m2
02:24 55.9 °F 49.5 °F 30.0 in North 4 mph 1 mph 79% 0.000 in 0.00 W/m2
02:29 55.8 °F 49.4 °F 30.0 in North 2 mph 3 mph 79% 0.000 in 0.00 W/m2
02:34 55.6 °F 49.2 °F 30.0 in NNE 2 mph 2 mph 79% 0.000 in 0.00 W/m2
02:39 55.4 °F 49.0 °F 30.0 in NE 4 mph 2 mph 79% 0.000 in 0.00 W/m2
02:44 55.2 °F 48.8 °F 30.0 in SSE 6 mph 6 mph 79% 0.000 in 0.00 W/m2
02:49 55.0 °F 48.6 °F 30.0 in NE 2 mph 2 mph 79% 0.000 in 0.00 W/m2
02:54 54.9 °F 48.5 °F 30.0 in Calm   2 mph 79% 0.000 in 0.00 W/m2
02:59 54.9 °F 48.8 °F 30.0 in North 2 mph   80% 0.000 in 0.00 W/m2
03:04 54.8 °F 48.7 °F 30.0 in North 4 mph 2 mph 80% 0.000 in 0.00 W/m2
03:09 54.7 °F 48.9 °F 30.0 in North 6 mph 6 mph 81% 0.000 in 0.00 W/m2
03:14 54.6 °F 48.9 °F 30.0 in Calm   2 mph 81% 0.000 in 0.00 W/m2
03:19 54.6 °F 49.2 °F 30.0 in North 4 mph 1 mph 82% 0.000 in 0.00 W/m2
03:24 54.5 °F 48.8 °F 30.0 in North 2 mph 3 mph 81% 0.000 in 0.00 W/m2
03:29 54.4 °F 48.7 °F 30.0 in North 4 mph 2 mph 81% 0.000 in 0.00 W/m2
03:34 54.3 °F 48.9 °F 30.0 in Calm   3 mph 82% 0.000 in 0.00 W/m2
03:39 54.3 °F 48.9 °F 30.0 in Calm     82% 0.000 in 0.00 W/m2
03:44 54.2 °F 48.8 °F 30.0 in Calm     82% 0.000 in 0.00 W/m2
03:49 54.1 °F 48.7 °F 30.0 in North 2 mph   82% 0.000 in 0.00 W/m2
03:54 54.0 °F 49.0 °F 30.0 in Calm   2 mph 83% 0.000 in 0.00 W/m2
03:59 54.0 °F 48.9 °F 30.0 in Calm     83% 0.000 in 0.00 W/m2
04:04 53.9 °F 48.9 °F 30.0 in Calm     83% 0.000 in 0.00 W/m2
04:09 53.9 °F 48.9 °F 30.0 in North 2 mph   83% 0.000 in 0.00 W/m2
04:14 54.0 °F 49.3 °F 30.0 in Calm   2 mph 84% 0.000 in 0.00 W/m2
04:19 54.0 °F 49.3 °F 30.0 in Calm     84% 0.000 in 0.00 W/m2
04:24 53.9 °F 48.9 °F 30.0 in Calm     83% 0.000 in 0.00 W/m2
04:29 53.8 °F 49.1 °F 30.0 in NNW 7 mph 3 mph 84% 0.000 in 0.00 W/m2
04:34 53.7 °F 49.0 °F 30.0 in North 9 mph 7 mph 84% 0.000 in 0.00 W/m2
04:39 53.5 °F 48.8 °F 30.0 in NNW 9 mph 4 mph 84% 0.000 in 0.00 W/m2
04:44 53.4 °F 48.7 °F 30.0 in NNW 7 mph 7 mph 84% 0.000 in 0.00 W/m2
04:49 53.2 °F 48.5 °F 30.0 in NNW 11 mph 6 mph 84% 0.000 in 0.00 W/m2
04:54 53.1 °F 48.7 °F 30.0 in North 6 mph 10 mph 85% 0.000 in 0.00 W/m2
04:59 53.1 °F 48.7 °F 30.0 in NNW 9 mph 6 mph 85% 0.000 in 0.00 W/m2
05:04 53.0 °F 48.6 °F 30.0 in North 9 mph 9 mph 85% 0.000 in 0.00 W/m2
05:09 53.0 °F 48.9 °F 30.0 in NE 2 mph 6 mph 86% 0.000 in 0.00 W/m2
05:14 53.0 °F 48.9 °F 30.0 in NE 2 mph 2 mph 86% 0.000 in 0.00 W/m2
05:19 53.0 °F 48.9 °F 30.0 in NE 2 mph 2 mph 86% 0.000 in 0.00 W/m2
05:24 53.0 °F 48.9 °F 30.0 in NE 4 mph 2 mph 86% 0.000 in 0.00 W/m2
05:29 53.0 °F 48.9 °F 30.0 in Calm   3 mph 86% 0.000 in 0.00 W/m2
05:34 53.0 °F 48.9 °F 30.0 in NE 2 mph   86% 0.000 in 0.00 W/m2
05:39 53.0 °F 48.9 °F 30.0 in NE 4 mph 2 mph 86% 0.000 in 0.00 W/m2
05:44 53.0 °F 48.9 °F 30.0 in Calm   3 mph 86% 0.000 in 0.00 W/m2
05:49 53.0 °F 48.9 °F 30.0 in Calm     86% 0.000 in 0.00 W/m2
05:54 53.0 °F 48.9 °F 30.0 in NE 2 mph 1 mph 86% 0.000 in 0.00 W/m2
05:58 53.0 °F 48.9 °F 30.0 in East 6 mph 2 mph 86% 0.000 in 5.00 W/m2
06:04 53.1 °F 49.0 °F 30.0 in Calm   6 mph 86% 0.000 in 7.00 W/m2
06:09 53.1 °F 49.0 °F 30.0 in North 4 mph 1 mph 86% 0.000 in 9.00 W/m2
06:14 53.1 °F 49.0 °F 30.0 in NNW 2 mph 3 mph 86% 0.000 in 12.00 W/m2
06:19 53.1 °F 49.0 °F 30.0 in NNW 6 mph 2 mph 86% 0.000 in 16.00 W/m2
06:24 53.0 °F 48.9 °F 30.0 in NNE 6 mph 6 mph 86% 0.000 in 21.00 W/m2
06:29 52.9 °F 48.8 °F 30.0 in North 6 mph 6 mph 86% 0.000 in 23.00 W/m2
06:34 52.9 °F 48.5 °F 30.0 in North 4 mph 6 mph 85% 0.000 in 23.00 W/m2
06:39 52.9 °F 48.5 °F 30.0 in NNW 7 mph 3 mph 85% 0.000 in 21.00 W/m2
06:44 52.9 °F 48.5 °F 30.0 in NNW 6 mph 7 mph 85% 0.000 in 21.00 W/m2
06:49 52.9 °F 48.5 °F 30.0 in Calm   6 mph 85% 0.000 in 26.00 W/m2
06:54 52.8 °F 48.4 °F 30.0 in ESE 4 mph 1 mph 85% 0.000 in 26.00 W/m2
06:59 52.8 °F 48.4 °F 30.0 in ESE 2 mph 3 mph 85% 0.000 in 26.00 W/m2
07:04 52.9 °F 48.5 °F 30.0 in ESE 7 mph 3 mph 85% 0.000 in 40.00 W/m2
07:09 52.8 °F 48.4 °F 30.0 in NNE 4 mph 7 mph 85% 0.000 in 76.00 W/m2
07:14 52.8 °F 48.4 °F 30.0 in Calm   3 mph 85% 0.000 in 130.00 W/m2
07:19 52.9 °F 48.8 °F 30.0 in East 5 mph 3 mph 86% 0.000 in 148.00 W/m2
07:24 53.0 °F 48.9 °F 30.0 in NNE 7 mph 6 mph 86% 0.000 in 95.00 W/m2
07:29 53.1 °F 49.0 °F 30.0 in NNW 9 mph 7 mph 86% 0.000 in 76.00 W/m2
07:34 53.1 °F 48.7 °F 30.0 in NNW 7 mph 9 mph 85% 0.000 in 83.00 W/m2
07:39 53.0 °F 48.6 °F 30.0 in ESE 11 mph 9 mph 85% 0.000 in 105.00 W/m2
07:44 53.1 °F 48.7 °F 30.0 in East 7 mph 10 mph 85% 0.000 in 105.00 W/m2
07:49 53.1 °F 48.7 °F 30.0 in ESE 11 mph 8 mph 85% 0.000 in 90.00 W/m2
07:54 53.0 °F 48.6 °F 30.0 in NNE 9 mph 10 mph 85% 0.000 in 105.00 W/m2
07:59 52.9 °F 48.5 °F 30.0 in East 9 mph 9 mph 85% 0.000 in 139.00 W/m2
08:04 52.8 °F 48.4 °F 30.0 in ESE 11 mph 9 mph 85% 0.000 in 118.00 W/m2
08:09 52.8 °F 48.1 °F 30.0 in ENE 13 mph 10 mph 84% 0.000 in 90.00 W/m2
08:14 52.7 °F 48.0 °F 30.0 in ESE 9 mph 13 mph 84% 0.000 in 137.00 W/m2
08:19 52.7 °F 48.0 °F 30.0 in North 13 mph 9 mph 84% 0.000 in 125.00 W/m2
08:24 52.7 °F 48.0 °F 30.0 in SW 4 mph 13 mph 84% 0.000 in 130.00 W/m2
08:29 53.0 °F 48.3 °F 30.0 in ESE 6 mph 3 mph 84% 0.000 in 172.00 W/m2
08:34 53.2 °F 48.5 °F 30.0 in WSW 7 mph 6 mph 84% 0.000 in 153.00 W/m2
08:39 53.2 °F 48.2 °F 30.0 in NE 6 mph 7 mph 83% 0.000 in 132.00 W/m2
08:44 53.4 °F 48.4 °F 30.0 in North 4 mph 6 mph 83% 0.000 in 97.00 W/m2
08:49 53.4 °F 48.0 °F 30.0 in NW 7 mph 5 mph 82% 0.000 in 134.00 W/m2
08:54 53.7 °F 48.3 °F 30.0 in North 9 mph 7 mph 82% 0.000 in 163.00 W/m2
08:59 53.8 °F 48.4 °F 30.0 in North 4 mph 9 mph 82% 0.000 in 227.00 W/m2
09:04 54.0 °F 48.5 °F 30.0 in ESE 11 mph 5 mph 82% 0.000 in 422.00 W/m2
09:09 54.4 °F 48.4 °F 30.0 in North 7 mph 10 mph 80% 0.000 in 457.00 W/m2
09:14 54.6 °F 48.4 °F 30.0 in North 9 mph 7 mph 80% 0.000 in 513.00 W/m2
09:19 55.0 °F 48.6 °F 30.0 in NNW 9 mph 9 mph 79% 0.000 in 555.00 W/m2
09:24 55.5 °F 48.6 °F 30.0 in NE 6 mph 3 mph 78% 0.000 in 533.00 W/m2
09:29 55.8 °F 48.7 °F 30.0 in North 6 mph 6 mph 77% 0.000 in 722.00 W/m2
09:34 56.4 °F 48.8 °F 30.0 in North 13 mph 7 mph 77% 0.000 in 610.00 W/m2
09:39 56.7 °F 48.9 °F 30.0 in SE 16 mph 13 mph 76% 0.000 in 541.00 W/m2
09:44 57.0 °F 48.8 °F 30.0 in North 16 mph 16 mph 74% 0.000 in 615.00 W/m2
09:49 57.4 °F 49.1 °F 30.0 in North 9 mph 10 mph 74% 0.000 in 475.00 W/m2
09:54 57.6 °F 48.5 °F 30.0 in ESE 11 mph 9 mph 72% 0.000 in 390.00 W/m2
09:59 57.7 °F 48.4 °F 30.0 in SE 7 mph 10 mph 71% 0.000 in 450.00 W/m2
10:04 57.8 °F 48.5 °F 30.0 in NNW 9 mph 11 mph 71% 0.000 in 452.00 W/m2
10:09 57.8 °F 48.5 °F 30.0 in ESE 11 mph 9 mph 71% 0.000 in 373.00 W/m2
10:14 58.0 °F 48.6 °F 30.0 in SE 6 mph 10 mph 71% 0.000 in 360.00 W/m2
10:18 58.2 °F 48.8 °F 30.0 in NNW 6 mph 6 mph 71% 0.000 in 369.00 W/m2
El Dorado Weather
Compliments of Weather Underground - 2 mb